Weather History for KBBB - August, 2013

Change the Weather History Date:

Sunday, August 4, 2013

  Actual Average Record
Temperature  
Mean Temperature 60 °F -  
Max Temperature 73 °F 81 °F 100 °F (1959)
Min Temperature 48 °F 58 °F 44 °F (1978)
Degree Days  
Heating Degree Days 4    
Growing Degree Days 10 (Base 50)    
Moisture  
Dew Point 52 °F    
Average Humidity 70    
Maximum Humidity 93    
Minimum Humidity 47    
Precipitation  
Precipitation 0.00 in - - ()
Sea Level Pressure  
Sea Level Pressure 30.15 in    
Wind  
Wind Speed 3 mph (South)    
Max Wind Speed 13 mph    
Max Gust Speed 18 mph    
Visibility 10 miles    
Events Rain , Thunderstorm    
Averages and records for this station are not official NWS values.
T = Trace of Precipitation, MM = Missing Value Source: NWS Daily Summary

Daily Weather History Graph

Daily Weather History Graph

Search for Another Location

Airport or City:

Trip Planner

Search our weather history database for the weather conditions in past years. The results will help you decide how hot, cold, wet, or windy it might be!

Date:

Astronomy

Aug. 04, 2013 Rise Set
Actual Time 6:10 AM CDT 8:45 PM CDT
Civil Twilight 5:37 AM CDT 9:19 PM CDT
Nautical Twilight 4:55 AM CDT 10:01 PM CDT
Astronomical Twilight 4:06 AM CDT 10:49 PM CDT
Moon 4:11 AM CDT (8/4) 7:09 PM CDT (8/4)
Length of Visible Light 15h 41m
Length of Day
14h 34m
Waning Crescent, 4% of the Moon is Illuminated
Aug 4
Waning Crescent
Aug 6
New
Aug 14
First Quarter
Aug 20
Full
Aug 28
Last Quarter

Hourly Weather History & Observations

Time (CDT) Temp. Dew Point Humidity Pressure Visibility Wind Dir Wind Speed Gust Speed Precip Events Conditions
12:12 AM 51.8 °F 48.2 °F 88% 30.23 in 10.0 mi Calm Calm - N/A   Clear
12:32 AM 51.8 °F 48.2 °F 88% 30.25 in 10.0 mi Calm Calm - N/A   Clear
12:53 AM 51.8 °F 48.2 °F 88% 30.26 in 10.0 mi Calm Calm - N/A   Clear
1:12 AM 53.6 °F 48.2 °F 82% 30.26 in 10.0 mi NE 3.5 mph - N/A   Clear
1:32 AM 51.8 °F 48.2 °F 88% 30.25 in 10.0 mi Calm Calm - N/A   Clear
1:53 AM 51.8 °F 48.2 °F 88% 30.25 in 10.0 mi Calm Calm - N/A   Clear
2:12 AM 55.4 °F 48.2 °F 77% 30.23 in 10.0 mi ESE 4.6 mph - N/A   Clear
2:33 AM 57.2 °F 48.2 °F 72% 30.23 in 10.0 mi Calm Calm - N/A   Clear
2:52 AM 55.4 °F 48.2 °F 77% 30.23 in 10.0 mi Calm Calm - N/A   Clear
3:12 AM 53.6 °F 48.2 °F 82% 30.22 in 10.0 mi Calm Calm - N/A   Clear
3:33 AM 53.6 °F 48.2 °F 82% 30.22 in 10.0 mi Calm Calm - N/A   Clear
3:52 AM 48.2 °F 46.4 °F 93% 30.22 in 10.0 mi East 3.5 mph - N/A   Clear
4:12 AM 50.0 °F 46.4 °F 87% 30.21 in 10.0 mi Calm Calm - N/A   Clear
4:33 AM 51.8 °F 48.2 °F 88% 30.21 in 10.0 mi Calm Calm - N/A   Clear
4:52 AM 51.8 °F 48.2 °F 88% 30.21 in 10.0 mi Calm Calm - N/A   Clear
5:12 AM 48.2 °F 46.4 °F 93% 30.21 in 10.0 mi Calm Calm - N/A   Clear
5:33 AM 48.2 °F 46.4 °F 93% 30.20 in 10.0 mi Calm Calm - N/A   Clear
5:52 AM 51.8 °F 48.2 °F 88% 30.19 in 10.0 mi East 3.5 mph - N/A   Clear
6:12 AM 53.6 °F 48.2 °F 82% 30.21 in 10.0 mi Calm Calm - N/A   Clear
6:33 AM 51.8 °F 48.2 °F 88% 30.22 in 10.0 mi Calm Calm - N/A   Clear
6:52 AM 51.8 °F 48.2 °F 88% 30.22 in 10.0 mi East 3.5 mph - N/A   Clear
7:13 AM 53.6 °F 50.0 °F 88% 30.23 in 10.0 mi Calm Calm - N/A   Clear
7:32 AM 55.4 °F 50.0 °F 82% 30.23 in 10.0 mi Calm Calm - N/A   Clear
7:52 AM 55.4 °F 51.8 °F 88% 30.23 in 10.0 mi ESE 3.5 mph - N/A   Clear
8:13 AM 55.4 °F 51.8 °F 88% 30.23 in 10.0 mi SE 4.6 mph - N/A   Clear
8:32 AM 55.4 °F 51.8 °F 88% 30.22 in 10.0 mi SE 5.8 mph - N/A   Clear
8:52 AM 57.2 °F 51.8 °F 82% 30.20 in 10.0 mi SE 5.8 mph - N/A   Clear
9:13 AM 60.8 °F 53.6 °F 77% 30.20 in 10.0 mi South 6.9 mph - N/A   Clear
9:32 AM 60.8 °F 53.6 °F 77% 30.20 in 10.0 mi South 6.9 mph - N/A   Clear
9:52 AM 60.8 °F 53.6 °F 77% 30.20 in 10.0 mi South 5.8 mph - N/A   Clear
10:12 AM 62.6 °F 53.6 °F 72% 30.20 in 10.0 mi South 5.8 mph - N/A   Clear
10:32 AM 64.4 °F 53.6 °F 68% 30.19 in 10.0 mi SSE 4.6 mph - N/A   Clear
10:53 AM 64.4 °F 53.6 °F 68% 30.19 in 10.0 mi Calm Calm - N/A   Clear
11:12 AM 66.2 °F 53.6 °F 64% 30.19 in 10.0 mi Calm Calm - N/A   Clear
11:32 AM 66.2 °F 53.6 °F 64% 30.20 in 10.0 mi Calm Calm - N/A   Clear
11:53 AM 68.0 °F 53.6 °F 60% 30.21 in 10.0 mi NNW 3.5 mph - N/A   Scattered Clouds
12:12 PM 66.2 °F 53.6 °F 64% 30.19 in 10.0 mi WSW 3.5 mph - N/A   Mostly Cloudy
12:32 PM 66.2 °F 55.4 °F 68% 30.17 in 10.0 mi SSW 6.9 mph - N/A   Overcast
12:53 PM 69.8 °F 55.4 °F 60% 30.16 in 10.0 mi South 6.9 mph - N/A   Mostly Cloudy
1:12 PM 69.8 °F 53.6 °F 56% 30.16 in 10.0 mi SW 5.8 mph - N/A   Overcast
1:33 PM 69.8 °F 55.4 °F 60% 30.16 in 10.0 mi SW 3.5 mph - N/A   Scattered Clouds
1:52 PM 69.8 °F 51.8 °F 53% 30.15 in 10.0 mi SSW 4.6 mph - N/A   Mostly Cloudy
2:12 PM 69.8 °F 55.4 °F 60% 30.15 in 10.0 mi SSW 5.8 mph - N/A   Overcast
2:33 PM 69.8 °F 55.4 °F 60% 30.15 in 10.0 mi SSW 5.8 mph - N/A   Overcast
2:52 PM 69.8 °F 53.6 °F 56% 30.15 in 10.0 mi SSW 5.8 mph - N/A   Mostly Cloudy
3:12 PM 71.6 °F 51.8 °F 50% 30.14 in 10.0 mi South 4.6 mph - N/A   Scattered Clouds
3:33 PM 71.6 °F 51.8 °F 50% 30.13 in 10.0 mi South 5.8 mph - N/A   Scattered Clouds
3:52 PM 71.6 °F 53.6 °F 53% 30.12 in 10.0 mi South 6.9 mph - N/A   Scattered Clouds
4:12 PM 73.4 °F 51.8 °F 47% 30.12 in 10.0 mi South 6.9 mph - N/A   Scattered Clouds
4:32 PM 73.4 °F 51.8 °F 47% 30.11 in 10.0 mi South 5.8 mph - N/A   Scattered Clouds
4:52 PM 73.4 °F 53.6 °F 50% 30.10 in 10.0 mi South 8.1 mph - N/A   Scattered Clouds
5:13 PM 73.4 °F 53.6 °F 50% 30.09 in 10.0 mi South 10.4 mph 16.1 mph N/A   Scattered Clouds
5:32 PM 73.4 °F 53.6 °F 50% 30.09 in 10.0 mi South 9.2 mph - N/A   Scattered Clouds
5:52 PM 73.4 °F 53.6 °F 50% 30.08 in 10.0 mi South 9.2 mph - N/A   Scattered Clouds
6:13 PM 73.4 °F 53.6 °F 50% 30.06 in 10.0 mi South 8.1 mph - N/A   Scattered Clouds
6:32 PM 73.4 °F 55.4 °F 53% 30.05 in 10.0 mi South 8.1 mph - N/A   Scattered Clouds
6:52 PM 73.4 °F 55.4 °F 53% 30.04 in 10.0 mi SSW 9.2 mph - N/A   Clear
7:13 PM 73.4 °F 57.2 °F 57% 30.04 in 10.0 mi South 9.2 mph - N/A   Clear
7:32 PM 71.6 °F 57.2 °F 60% 30.03 in 10.0 mi South 8.1 mph - N/A   Clear
7:52 PM 69.8 °F 57.2 °F 64% 30.02 in 10.0 mi South 8.1 mph - N/A   Clear
8:13 PM 69.8 °F 55.4 °F 60% 30.02 in 10.0 mi South 4.6 mph - N/A   Scattered Clouds
8:32 PM 69.8 °F 55.4 °F 60% 30.02 in 10.0 mi South 5.8 mph - N/A   Mostly Cloudy
8:52 PM 69.8 °F 55.4 °F 60% 30.02 in 10.0 mi South 5.8 mph - N/A   Overcast
9:13 PM 69.8 °F 55.4 °F 60% 30.01 in 10.0 mi South 6.9 mph - N/A   Mostly Cloudy
9:32 PM 69.8 °F 57.2 °F 64% 30.02 in 10.0 mi SSE 5.8 mph - N/A   Mostly Cloudy
9:52 PM 69.8 °F 57.2 °F 64% 30.00 in 10.0 mi South 10.4 mph - N/A   Overcast
10:13 PM 66.2 °F 57.2 °F 73% 30.01 in 10.0 mi South 9.2 mph - N/A   Overcast
10:32 PM 66.2 °F 57.2 °F 73% 29.99 in 10.0 mi SSE 6.9 mph - N/A Thunderstorm Mostly Cloudy
10:53 PM 68.0 °F 57.2 °F 68% 29.97 in 10.0 mi South 12.7 mph 18.4 mph N/A   Mostly Cloudy
11:13 PM 66.2 °F 57.2 °F 73% 29.97 in 10.0 mi South 10.4 mph 17.3 mph N/A   Overcast
11:32 PM 64.4 °F 57.2 °F 77% 29.97 in 10.0 mi SSW 5.8 mph - N/A Thunderstorm Thunderstorm
11:53 PM 64.4 °F 57.2 °F 77% 29.97 in 10.0 mi SW 6.9 mph - N/A Rain , Thunderstorm Light Thunderstorms and Rain